Weather History for Morristown, NJ

Change the Weather History Date:

Tuesday, April 23, 2013

  Actual Average Record
Temperature  
Mean Temperature 45 °F -  
Max Temperature 51 °F 64 °F 89 °F (1985)
Min Temperature 39 °F 40 °F 21 °F (1936)
Degree Days  
Heating Degree Days 20    
Growing Degree Days 0 (Base 50)    
Moisture  
Dew Point 35 °F    
Average Humidity 69    
Maximum Humidity 81    
Minimum Humidity 57    
Precipitation  
Precipitation 0.00 in - - ()
Sea Level Pressure  
Sea Level Pressure 30.34 in    
Wind  
Wind Speed 6 mph (NE)    
Max Wind Speed 10 mph    
Max Gust Speed 20 mph    
Visibility 9 miles    
Events      
Averages and records for this station are not official NWS values.
T = Trace of Precipitation, MM = Missing Value Source: NWS Daily Summary

Daily Weather History Graph

Daily Weather History Graph

Search for Another Location

Airport:

Trip Planner

Search our weather history database for the weather conditions in past years. The results will help you decide how hot, cold, wet, or windy it might be!

Date:

Astronomy

Apr. 23, 2013 Rise Set
Actual Time 6:06 AM EDT 7:45 PM EDT
Civil Twilight 5:37 AM EDT 8:15 PM EDT
Nautical Twilight 5:02 AM EDT 8:50 PM EDT
Astronomical Twilight 4:25 AM EDT 9:27 PM EDT
Moon 5:37 PM EDT (4/23) 4:34 AM EDT (4/23)
Length of Visible Light 14h 37m
Length of Day
13h 39m
Waxing Gibbous, 94% of the Moon is Illuminated
Apr 23
Waxing Gibbous
Apr 25
Full
May 2
Last Quarter
May 9
New
May 18
First Quarter

Hourly Weather History & Observations

Time (EDT) Temp. Windchill Dew Point Humidity Pressure Visibility Wind Dir Wind Speed Gust Speed Precip Events Conditions
12:15 AM 46.4 °F 43.5 °F 33.8 °F 62% 30.48 in 10.0 mi ENE 5.8 mph - N/A   Overcast
12:35 AM 46.4 °F 43.5 °F 33.8 °F 62% 30.48 in 10.0 mi ENE 5.8 mph - N/A   Overcast
12:55 AM 46.4 °F 45.2 °F 32.0 °F 57% 30.48 in 10.0 mi ENE 3.5 mph - N/A   Overcast
1:15 AM 44.6 °F 42.2 °F 32.0 °F 61% 30.47 in 10.0 mi ENE 4.6 mph - N/A   Overcast
1:35 AM 44.6 °F 42.2 °F 32.0 °F 61% 30.47 in 10.0 mi NE 4.6 mph - N/A   Overcast
1:55 AM 44.6 °F 40.2 °F 32.0 °F 61% 30.46 in 10.0 mi ENE 8.1 mph - N/A   Overcast
2:15 AM 44.6 °F 39.2 °F 32.0 °F 61% 30.45 in 10.0 mi ENE 10.4 mph - N/A   Overcast
2:35 AM 44.6 °F 40.2 °F 32.0 °F 61% 30.44 in 10.0 mi East 8.1 mph - N/A   Overcast
2:55 AM 42.8 °F 39.3 °F 32.0 °F 66% 30.44 in 10.0 mi ENE 5.8 mph - N/A   Mostly Cloudy
3:15 AM 42.8 °F 40.1 °F 32.0 °F 66% 30.43 in 10.0 mi NE 4.6 mph - N/A   Overcast
3:35 AM 42.8 °F 39.3 °F 32.0 °F 66% 30.43 in 10.0 mi NE 5.8 mph - N/A   Mostly Cloudy
3:55 AM 42.8 °F 38.6 °F 32.0 °F 66% 30.43 in 10.0 mi NE 6.9 mph - N/A   Scattered Clouds
4:15 AM 41.0 °F 37.1 °F 32.0 °F 70% 30.42 in 10.0 mi NE 5.8 mph - N/A   Mostly Cloudy
4:35 AM 42.8 °F 39.3 °F 32.0 °F 66% 30.41 in 10.0 mi NE 5.8 mph - N/A   Overcast
4:55 AM 41.0 °F 39.0 °F 32.0 °F 70% 30.41 in 10.0 mi NE 3.5 mph - N/A   Mostly Cloudy
5:15 AM 39.2 °F 33.0 °F 32.0 °F 75% 30.41 in 10.0 mi NE 9.2 mph - N/A   Scattered Clouds
5:35 AM 39.2 °F 34.2 °F 32.0 °F 75% 30.41 in 10.0 mi NE 6.9 mph - N/A   Clear
5:55 AM 39.2 °F 35.0 °F 32.0 °F 75% 30.40 in 10.0 mi NNE 5.8 mph - N/A   Scattered Clouds
6:15 AM 41.0 °F 35.8 °F 32.0 °F 70% 30.40 in 10.0 mi NNE 8.1 mph - N/A   Overcast
6:35 AM 41.0 °F 37.1 °F 32.0 °F 70% 30.40 in 10.0 mi NNE 5.8 mph - N/A   Overcast
6:45 AM 39.2 °F 35.0 °F 30.2 °F 70% 30.41 in 10.0 mi NE 5.8 mph - N/A   Overcast
7:45 AM 39.2 °F 33.6 °F 30.2 °F 70% 30.41 in 10.0 mi NE 8.1 mph - N/A   Overcast
8:45 AM 41.0 °F 35.2 °F 32.0 °F 70% 30.39 in 10.0 mi NE 9.2 mph 17.3 mph N/A   Overcast
9:45 AM 42.8 °F 37.5 °F 32.0 °F 66% 30.38 in 10.0 mi NE 9.2 mph - N/A   Overcast
10:45 AM 42.8 °F 37.5 °F 35.6 °F 76% 30.37 in 7.0 mi ENE 9.2 mph 13.8 mph N/A   Overcast
11:45 AM 42.8 °F 37.5 °F 35.6 °F 76% 30.34 in 7.0 mi ENE 9.2 mph 17.3 mph N/A   Overcast
12:30 PM 44.6 °F 39.2 °F 39.2 °F 81% 30.32 in 3.0 mi ENE 10.4 mph 16.1 mph N/A   Overcast
12:51 PM 44.6 °F 39.2 °F 39.2 °F 81% 30.31 in 5.0 mi ENE 10.4 mph 19.6 mph N/A   Overcast
1:45 PM 44.6 °F 41.4 °F 39.2 °F 81% 30.29 in 7.0 mi NE 5.8 mph 16.1 mph N/A   Overcast
2:45 PM 48.2 °F - 39.2 °F 71% 30.26 in 7.0 mi NNE 10.4 mph 16.1 mph N/A   Overcast
3:45 PM 48.2 °F - 39.2 °F 71% 30.24 in 10.0 mi NE 6.9 mph 11.5 mph N/A   Overcast
4:45 PM 50.0 °F - 39.2 °F 66% 30.24 in 10.0 mi NNE 8.1 mph - N/A   Overcast
5:45 PM 51.8 °F - 41.0 °F 67% 30.20 in 10.0 mi NNE 4.6 mph - N/A   Overcast
6:45 PM 50.0 °F - 39.2 °F 66% 30.19 in 10.0 mi NNE 5.8 mph - N/A   Overcast
7:45 PM 50.0 °F - 39.2 °F 66% 30.17 in 10.0 mi NNE 5.8 mph - N/A   Overcast
8:45 PM 46.4 °F 44.3 °F 39.2 °F 76% 30.14 in 10.0 mi NE 4.6 mph - N/A   Clear
9:45 PM 46.4 °F 45.2 °F 39.2 °F 76% 30.16 in 10.0 mi North 3.5 mph - N/A   Mostly Cloudy
10:55 PM 48.2 °F - 37.4 °F 66% 30.14 in 10.0 mi NW 3.5 mph - N/A   Clear
11:15 PM 48.2 °F - 37.4 °F 66% 30.13 in 10.0 mi NNW 3.5 mph - N/A   Clear
11:35 PM 46.4 °F 45.2 °F 37.4 °F 71% 30.13 in 10.0 mi North 3.5 mph - N/A   Clear
11:55 PM 44.6 °F - 37.4 °F 76% 30.12 in 10.0 mi Calm Calm - N/A   Clear